Location: Namasale
(1.5000°N, 32.6167°E)
Time: 17:10:42
(UTC+00:00)

Courier 1B - Pass Details

Date: 28 April 2021
Orbit: 962 x 1209 km, 28.3° (Epoch: 18 May)

Event Time Altitude Azimuth Distance (km) Brightness Sun altitude
Rises 06:27:09 0° 284° (WNW) 4,040 10.3 39.0°
Reaches altitude 10° 06:31:38 10° 307° (NW) 3,031 9.9 40.1°
Maximum altitude 06:35:26 14° 338° (NNW) 2,660 9.9 41.0°
Drops below altitude 10° 06:39:09 10° 9° (N) 2,935 10.4 41.9°
Sets 06:43:23 0° 33° (NNE) 3,833 11.1 42.9°
